| time (UTC) | temp F | wind direction | speed MPH | gust MPH | rain 1hr in | rain 24hr in | rain mn in | humidity % | barometer mb |
| 20260507225006 | 62 | 251 | 3.0 | 13.0 | 0.00 | 0.00 | 0.00 | 34 | 930.0 |
| 20260507224502 | 62 | 260 | 9.0 | 13.0 | 0.00 | 0.00 | 0.00 | 34 | 930.0 |
| 20260507223958 | 62 | 244 | 9.0 | 13.0 | 0.00 | 0.00 | 0.00 | 34 | 930.1 |
| 20260507223454 | 62 | 308 | 11.0 | 18.0 | 0.00 | 0.00 | 0.00 | 33 | 930.3 |
| 20260507222952 | 62 | 32 | 8.0 | 15.0 | 0.00 | 0.00 | 0.00 | 33 | 930.4 |
| 20260507222448 | 62 | 256 | 7.0 | 21.0 | 0.00 | 0.00 | 0.00 | 34 | 930.3 |
| 20260507221945 | 63 | 287 | 7.0 | 13.0 | 0.00 | 0.00 | 0.00 | 33 | 930.4 |
| 20260507221442 | 63 | 286 | 11.0 | 14.0 | 0.00 | 0.00 | 0.00 | 33 | 930.4 |
| 20260507220938 | 62 | 352 | 9.0 | 15.0 | 0.00 | 0.00 | 0.00 | 33 | 930.4 |
| 20260507220436 | 62 | 319 | 4.0 | 14.0 | 0.00 | 0.00 | 0.00 | 33 | 930.5 |
| 20260507215932 | 62 | 22 | 9.0 | 15.0 | 0.00 | 0.00 | 0.00 | 32 | 930.3 |
| 20260507215429 | 63 | 300 | 5.0 | 14.0 | 0.00 | 0.00 | 0.00 | 31 | 930.4 |
| 20260507214926 | 63 | 317 | 12.0 | 18.0 | 0.00 | 0.00 | 0.00 | 31 | 930.9 |
| 20260507214424 | 63 | 313 | 8.0 | 24.0 | 0.00 | 0.00 | 0.00 | 31 | 930.9 |
| 20260507213919 | 63 | 312 | 9.0 | 18.0 | 0.00 | 0.00 | 0.00 | 31 | 930.8 |
| 20260507213416 | 63 | 358 | 8.0 | 21.0 | 0.00 | 0.00 | 0.00 | 33 | 930.7 |
| 20260507212913 | 63 | 289 | 7.0 | 9.0 | 0.00 | 0.00 | 0.00 | 32 | 931.0 |
| 20260507212409 | 63 | 295 | 12.0 | 15.0 | 0.00 | 0.00 | 0.00 | 32 | 930.9 |
| 20260507211906 | 62 | 331 | 8.0 | 16.0 | 0.00 | 0.00 | 0.00 | 34 | 930.5 |
| 20260507211402 | 62 | 247 | 5.0 | 13.0 | 0.00 | 0.00 | 0.00 | 32 | 930.9 |
| 20260507210859 | 62 | 321 | 17.0 | 26.0 | 0.00 | 0.00 | 0.00 | 32 | 930.7 |
| 20260507210356 | 63 | 308 | 4.0 | 13.0 | 0.00 | 0.00 | 0.00 | 33 | 930.8 |
| 20260507205852 | 63 | 236 | 9.0 | 17.0 | 0.00 | 0.00 | 0.00 | 32 | 930.7 |
| 20260507205349 | 63 | 261 | 1.0 | 14.0 | 0.00 | 0.00 | 0.00 | 33 | 930.7 |
| 20260507204846 | 63 | 260 | 7.0 | 16.0 | 0.00 | 0.00 | 0.00 | 32 | 930.7 |
| 20260507204343 | 63 | 261 | 12.0 | 21.0 | 0.00 | 0.00 | 0.00 | 31 | 930.8 |
| 20260507203841 | 63 | 289 | 9.0 | 21.0 | 0.00 | 0.00 | 0.00 | 32 | 930.7 |
| 20260507203338 | 63 | 295 | 11.0 | 18.0 | 0.00 | 0.00 | 0.00 | 30 | 930.7 |
| 20260507202834 | 64 | 341 | 10.0 | 20.0 | 0.00 | 0.00 | 0.00 | 32 | 930.3 |
| 20260507202331 | 64 | 298 | 8.0 | 18.0 | 0.00 | 0.00 | 0.00 | 33 | 930.4 |
| 20260507201826 | 64 | 312 | 11.0 | 18.0 | 0.00 | 0.00 | 0.00 | 31 | 930.7 |
| 20260507201322 | 63 | 323 | 8.0 | 20.0 | 0.00 | 0.00 | 0.00 | 32 | 930.7 |
| 20260507200819 | 64 | 304 | 12.0 | 21.0 | 0.00 | 0.00 | 0.00 | 31 | 930.7 |
| 20260507200315 | 64 | 184 | 11.0 | 20.0 | 0.00 | 0.00 | 0.00 | 32 | 930.7 |
| 20260507195811 | 65 | 1 | 9.0 | 17.0 | 0.00 | 0.00 | 0.00 | 31 | 930.7 |
| 20260507195308 | 66 | 317 | 15.0 | 17.0 | 0.00 | 0.00 | 0.00 | 29 | 930.5 |
| 20260507194806 | 65 | 300 | 14.0 | 23.0 | 0.00 | 0.00 | 0.00 | 31 | 930.8 |
| 20260507194302 | 67 | 274 | 10.0 | 20.0 | 0.00 | 0.00 | 0.00 | 31 | 930.8 |
| 20260507193758 | 65 | 190 | 10.0 | 14.0 | 0.00 | 0.00 | 0.00 | 34 | 930.7 |
| 20260507193255 | 63 | 287 | 1.0 | 14.0 | 0.00 | 0.00 | 0.00 | 35 | 930.8 |
| 20260507192751 | 63 | 289 | 11.0 | 20.0 | 0.00 | 0.00 | 0.00 | 35 | 930.9 |
| 20260507192248 | 64 | 299 | 13.0 | 18.0 | 0.00 | 0.00 | 0.00 | 35 | 931.1 |
| 20260507191744 | 63 | 307 | 13.0 | 18.0 | 0.00 | 0.00 | 0.00 | 33 | 930.9 |
| 20260507191241 | 63 | 266 | 2.0 | 13.0 | 0.00 | 0.00 | 0.00 | 36 | 930.8 |
| 20260507190738 | 63 | 257 | 10.0 | 13.0 | 0.00 | 0.00 | 0.00 | 35 | 931.0 |
| 20260507190236 | 62 | 317 | 2.0 | 11.0 | 0.00 | 0.00 | 0.00 | 37 | 930.8 |
| 20260507185735 | 63 | 308 | 8.0 | 13.0 | 0.00 | 0.00 | 0.00 | 36 | 931.0 |
| 20260507185231 | 62 | 266 | 6.0 | 9.0 | 0.00 | 0.00 | 0.00 | 37 | 930.9 |
| 20260507184729 | 63 | 259 | 15.0 | 24.0 | 0.00 | 0.00 | 0.00 | 36 | 931.1 |
| 20260507184227 | 63 | 269 | 5.0 | 9.0 | 0.00 | 0.00 | 0.00 | 37 | 930.9 |
| 20260507183723 | 61 | 275 | 6.0 | 18.0 | 0.00 | 0.00 | 0.00 | 36 | 930.9 |
| 20260507183220 | 62 | 264 | 8.0 | 17.0 | 0.00 | 0.00 | 0.00 | 36 | 931.1 |
| 20260507182717 | 62 | 240 | 11.0 | 14.0 | 0.00 | 0.00 | 0.00 | 35 | 930.9 |
| 20260507182212 | 61 | 271 | 7.0 | 9.0 | 0.00 | 0.00 | 0.00 | 36 | 931.2 |
| 20260507181709 | 62 | 270 | 12.0 | 21.0 | 0.00 | 0.00 | 0.00 | 36 | 931.1 |
| 20260507181206 | 62 | 252 | 8.0 | 18.0 | 0.00 | 0.00 | 0.00 | 36 | 931.0 |
| 20260507180702 | 61 | 216 | 7.0 | 11.0 | 0.00 | 0.00 | 0.00 | 35 | 931.0 |
| 20260507180159 | 60 | 330 | 7.0 | 18.0 | 0.00 | 0.00 | 0.00 | 36 | 931.1 |
| 20260507175655 | 60 | 287 | 13.0 | 17.0 | 0.00 | 0.00 | 0.00 | 36 | 931.2 |
| 20260507175152 | 61 | 253 | 7.0 | 15.0 | 0.00 | 0.00 | 0.00 | 36 | 931.3 |
| 20260507174649 | 61 | 271 | 11.0 | 18.0 | 0.00 | 0.00 | 0.00 | 36 | 931.3 |
| 20260507174148 | 61 | 293 | 5.0 | 13.0 | 0.00 | 0.00 | 0.00 | 37 | 931.3 |
| 20260507173644 | 60 | 261 | 8.0 | 14.0 | 0.00 | 0.00 | 0.00 | 36 | 931.5 |
| 20260507173141 | 60 | 290 | 2.0 | 11.0 | 0.00 | 0.00 | 0.00 | 37 | 931.3 |
| 20260507172637 | 61 | 265 | 6.0 | 11.0 | 0.00 | 0.00 | 0.00 | 36 | 931.2 |
| 20260507172135 | 62 | 257 | 3.0 | 8.0 | 0.00 | 0.00 | 0.00 | 37 | 931.6 |
| 20260507171629 | 61 | 267 | 9.0 | 11.0 | 0.00 | 0.00 | 0.00 | 36 | 931.3 |
| 20260507171127 | 62 | 62 | 8.0 | 17.0 | 0.00 | 0.00 | 0.00 | 36 | 931.6 |
| 20260507170624 | 62 | 320 | 6.0 | 18.0 | 0.00 | 0.00 | 0.00 | 35 | 931.5 |
| 20260507170121 | 62 | 345 | 8.0 | 17.0 | 0.00 | 0.00 | 0.00 | 35 | 931.7 |
| 20260507165616 | 62 | 250 | 11.0 | 16.0 | 0.00 | 0.00 | 0.00 | 36 | 931.8 |
| 20260507165113 | 61 | 278 | 4.0 | 15.0 | 0.00 | 0.00 | 0.00 | 37 | 931.7 |
| 20260507164609 | 61 | 196 | 5.0 | 17.0 | 0.00 | 0.00 | 0.00 | 38 | 931.8 |
| 20260507164106 | 61 | 275 | 7.0 | 9.0 | 0.00 | 0.00 | 0.00 | 37 | 931.7 |
| 20260507163604 | 61 | 287 | 3.0 | 9.0 | 0.00 | 0.00 | 0.00 | 39 | 931.9 |
| 20260507163102 | 59 | 257 | 2.0 | 9.0 | 0.00 | 0.00 | 0.00 | 40 | 932.0 |
| 20260507162601 | 57 | 217 | 8.0 | 11.0 | 0.00 | 0.00 | 0.00 | 41 | 932.1 |
| 20260507162059 | 58 | 214 | 6.0 | 10.0 | 0.00 | 0.00 | 0.00 | 40 | 932.0 |
| 20260507161555 | 59 | 269 | 5.0 | 13.0 | 0.00 | 0.00 | 0.00 | 39 | 932.1 |
| 20260507161051 | 58 | 177 | 6.0 | 8.0 | 0.00 | 0.00 | 0.00 | 40 | 932.3 |
| 20260507160548 | 58 | 124 | 0.0 | 3.0 | 0.00 | 0.00 | 0.00 | 43 | 932.3 |
| 20260507160044 | 57 | 224 | 4.0 | 6.0 | 0.00 | 0.00 | 0.00 | 43 | 932.4 |
| 20260507155539 | 57 | 213 | 5.0 | 6.0 | 0.00 | 0.00 | 0.00 | 44 | 932.5 |
| 20260507155037 | 55 | 158 | 0.0 | 1.0 | 0.00 | 0.00 | 0.00 | 47 | 932.4 |
| 20260507154534 | 53 | 59 | 0.0 | 0.0 | 0.00 | 0.00 | 0.00 | 48 | 932.5 |
| 20260507154031 | 52 | 87 | 0.0 | 3.0 | 0.00 | 0.00 | 0.00 | 51 | 932.4 |
| 20260507153528 | 53 | 54 | 0.0 | 0.0 | 0.00 | 0.00 | 0.00 | 50 | 932.6 |
| 20260507153024 | 52 | 14 | 0.0 | 0.0 | 0.00 | 0.00 | 0.00 | 48 | 932.6 |
| 20260507152519 | 52 | 351 | 0.0 | 0.0 | 0.00 | 0.00 | 0.00 | 48 | 932.5 |
| 20260507152016 | 53 | 350 | 0.0 | 5.0 | 0.00 | 0.00 | 0.00 | 47 | 932.4 |
| 20260507151513 | 53 | 192 | 3.0 | 7.0 | 0.00 | 0.00 | 0.00 | 46 | 932.5 |
| 20260507151010 | 53 | 282 | 1.0 | 3.0 | 0.00 | 0.00 | 0.00 | 46 | 932.4 |
| 20260507150506 | 53 | 233 | 2.0 | 6.0 | 0.00 | 0.00 | 0.00 | 47 | 932.4 |
| 20260507150003 | 53 | 229 | 2.0 | 8.0 | 0.00 | 0.00 | 0.00 | 47 | 932.3 |
| 20260507145458 | 52 | 12 | 0.0 | 1.0 | 0.00 | 0.00 | 0.00 | 51 | 932.4 |
| 20260507144955 | 51 | 186 | 0.0 | 1.0 | 0.00 | 0.00 | 0.00 | 51 | 932.5 |
| 20260507144452 | 50 | 131 | 0.0 | 2.0 | 0.00 | 0.00 | 0.00 | 52 | 932.5 |
| 20260507143949 | 50 | 150 | 0.0 | 3.0 | 0.00 | 0.00 | 0.00 | 51 | 932.4 |
| 20260507143447 | 49 | 53 | 0.0 | 0.0 | 0.00 | 0.00 | 0.00 | 55 | 932.5 |
| 20260507142943 | 48 | 90 | 0.0 | 0.0 | 0.00 | 0.00 | 0.00 | 57 | 932.5 |
| 20260507142439 | 48 | 96 | 0.0 | 0.0 | 0.00 | 0.00 | 0.00 | 57 | 932.9 |
| 20260507141937 | 48 | 131 | 0.0 | 0.0 | 0.00 | 0.00 | 0.00 | 58 | 932.8 |
| 20260507141432 | 46 | 87 | 0.0 | 0.0 | 0.00 | 0.00 | 0.00 | 61 | 932.7 |
| 20260507140929 | 46 | 78 | 0.0 | 0.0 | 0.00 | 0.00 | 0.00 | 63 | 932.7 |
| 20260507140426 | 46 | 92 | 0.0 | 0.0 | 0.00 | 0.00 | 0.00 | 62 | 933.3 |
| 20260507135924 | 45 | 89 | 0.0 | 0.0 | 0.00 | 0.00 | 0.00 | 63 | 933.1 |
| 20260507135420 | 45 | 97 | 0.0 | 0.0 | 0.00 | 0.00 | 0.00 | 62 | 933.2 |
| 20260507134918 | 45 | 80 | 0.0 | 0.0 | 0.00 | 0.00 | 0.00 | 62 | 933.5 |
| 20260507134414 | 44 | 93 | 0.0 | 0.0 | 0.00 | 0.00 | 0.00 | 64 | 933.7 |
| 20260507133910 | 43 | 84 | 0.0 | 0.0 | 0.00 | 0.00 | 0.00 | 69 | 934.0 |
| 20260507133406 | 42 | 60 | 0.0 | 1.0 | 0.00 | 0.00 | 0.00 | 69 | 934.1 |
| 20260507132905 | 41 | 113 | 4.0 | 6.0 | 0.00 | 0.00 | 0.00 | 69 | 934.4 |
| 20260507132400 | 41 | 114 | 1.0 | 5.0 | 0.00 | 0.00 | 0.00 | 70 | 934.4 |
| 20260507131858 | 41 | 117 | 5.0 | 7.0 | 0.00 | 0.00 | 0.00 | 70 | 934.1 |
| 20260507131354 | 41 | 105 | 3.0 | 6.0 | 0.00 | 0.00 | 0.00 | 70 | 933.1 |
| 20260507130851 | 41 | 123 | 0.0 | 3.0 | 0.00 | 0.00 | 0.00 | 71 | 932.1 |
| 20260507130348 | 40 | 140 | 0.0 | 1.0 | 0.00 | 0.00 | 0.00 | 72 | 932.0 |
| 20260507125847 | 39 | 54 | 0.0 | 0.0 | 0.00 | 0.00 | 0.00 | 74 | 932.1 |
| 20260507125344 | 39 | 67 | 0.0 | 0.0 | 0.00 | 0.00 | 0.00 | 74 | 931.9 |
| 20260507124842 | 39 | 93 | 0.0 | 2.0 | 0.00 | 0.00 | 0.00 | 74 | 932.1 |
| 20260507124338 | 39 | 64 | 0.0 | 1.0 | 0.00 | 0.00 | 0.00 | 72 | 932.0 |
| 20260507123837 | 40 | 66 | 0.0 | 0.0 | 0.00 | 0.00 | 0.00 | 70 | 931.9 |
| 20260507123333 | 41 | 109 | 0.0 | 0.0 | 0.00 | 0.00 | 0.00 | 67 | 932.0 |
| 20260507122830 | 41 | 115 | 0.0 | 0.0 | 0.00 | 0.00 | 0.00 | 69 | 932.0 |
| 20260507122325 | 40 | 33 | 0.0 | 0.0 | 0.00 | 0.00 | 0.00 | 68 | 931.9 |
| 20260507121822 | 39 | 45 | 0.0 | 0.0 | 0.00 | 0.00 | 0.00 | 73 | 931.9 |
| 20260507121317 | 39 | 50 | 0.0 | 0.0 | 0.00 | 0.00 | 0.00 | 73 | 931.9 |
| 20260507120814 | 38 | 42 | 0.0 | 0.0 | 0.00 | 0.00 | 0.00 | 75 | 931.8 |
| 20260507120310 | 37 | 53 | 0.0 | 0.0 | 0.00 | 0.00 | 0.00 | 76 | 932.0 |
| 20260507115806 | 37 | 81 | 0.0 | 0.0 | 0.00 | 0.00 | 0.00 | 77 | 932.0 |
| 20260507115306 | 36 | 64 | 0.0 | 0.0 | 0.00 | 0.00 | 0.00 | 78 | 931.8 |
| 20260507114758 | 36 | 55 | 0.0 | 0.0 | 0.00 | 0.00 | 0.00 | 77 | 931.7 |
| 20260507114256 | 37 | 73 | 0.0 | 0.0 | 0.00 | 0.00 | 0.00 | 75 | 931.9 |
| 20260507113753 | 37 | 80 | 0.0 | 0.0 | 0.00 | 0.00 | 0.00 | 74 | 931.9 |
| 20260507113249 | 37 | 46 | 0.0 | 0.0 | 0.00 | 0.00 | 0.00 | 76 | 932.1 |
| 20260507112748 | 37 | 45 | 0.0 | 0.0 | 0.00 | 0.00 | 0.00 | 76 | 931.8 |
| 20260507112244 | 37 | 45 | 0.0 | 0.0 | 0.00 | 0.00 | 0.00 | 76 | 931.7 |
| 20260507111742 | 37 | 42 | 1.0 | 2.0 | 0.00 | 0.00 | 0.00 | 76 | 931.9 |
| 20260507111238 | 37 | 74 | 0.0 | 0.0 | 0.00 | 0.00 | 0.00 | 76 | 931.8 |
| 20260507110734 | 37 | 78 | 0.0 | 0.0 | 0.00 | 0.00 | 0.00 | 76 | 931.9 |
| 20260507110231 | 37 | 72 | 0.0 | 0.0 | 0.00 | 0.00 | 0.00 | 77 | 931.9 |
| 20260507105728 | 37 | 91 | 0.0 | 0.0 | 0.00 | 0.00 | 0.00 | 77 | 932.1 |
| 20260507105224 | 37 | 94 | 0.0 | 0.0 | 0.00 | 0.00 | 0.00 | 75 | 932.3 |
| 20260507104721 | 37 | 97 | 0.0 | 3.0 | 0.00 | 0.00 | 0.00 | 75 | 932.3 |
| 20260507104218 | 37 | 123 | 4.0 | 5.0 | 0.00 | 0.00 | 0.00 | 75 | 932.4 |
| 20260507103714 | 37 | 115 | 0.0 | 0.0 | 0.00 | 0.00 | 0.00 | 76 | 932.4 |
| 20260507103210 | 37 | 120 | 0.0 | 0.0 | 0.00 | 0.00 | 0.00 | 76 | 932.3 |
| 20260507102707 | 37 | 122 | 0.0 | 1.0 | 0.00 | 0.00 | 0.00 | 76 | 932.3 |
| 20260507102204 | 37 | 132 | 0.0 | 0.0 | 0.00 | 0.00 | 0.00 | 75 | 932.6 |
| 20260507101659 | 37 | 91 | 0.0 | 0.0 | 0.00 | 0.00 | 0.00 | 75 | 932.7 |
| 20260507101155 | 36 | 100 | 0.0 | 0.0 | 0.00 | 0.00 | 0.00 | 76 | 932.3 |
| 20260507100653 | 36 | 99 | 0.0 | 1.0 | 0.00 | 0.00 | 0.00 | 75 | 932.6 |
| 20260507100151 | 37 | 116 | 0.0 | 0.0 | 0.00 | 0.00 | 0.00 | 75 | 932.5 |
| 20260507095648 | 37 | 90 | 0.0 | 0.0 | 0.00 | 0.00 | 0.00 | 76 | 932.6 |
| 20260507095145 | 37 | 89 | 0.0 | 0.0 | 0.00 | 0.00 | 0.00 | 76 | 932.9 |
| 20260507094641 | 36 | 81 | 0.0 | 0.0 | 0.00 | 0.00 | 0.00 | 76 | 932.6 |
| 20260507094138 | 36 | 79 | 0.0 | 0.0 | 0.00 | 0.00 | 0.00 | 76 | 932.7 |
| 20260507093635 | 36 | 83 | 0.0 | 0.0 | 0.00 | 0.00 | 0.00 | 77 | 932.6 |
| 20260507093134 | 35 | 78 | 0.0 | 0.0 | 0.00 | 0.00 | 0.00 | 77 | 932.7 |
| 20260507092631 | 36 | 48 | 0.0 | 0.0 | 0.00 | 0.00 | 0.00 | 77 | 932.7 |
| 20260507092127 | 36 | 51 | 0.0 | 0.0 | 0.00 | 0.00 | 0.00 | 76 | 932.8 |
| 20260507091624 | 36 | 50 | 0.0 | 0.0 | 0.00 | 0.00 | 0.00 | 76 | 932.8 |
| 20260507091119 | 36 | 93 | 0.0 | 0.0 | 0.00 | 0.00 | 0.00 | 75 | 932.7 |
| 20260507090616 | 37 | 87 | 0.0 | 0.0 | 0.00 | 0.00 | 0.00 | 75 | 932.9 |
| 20260507090113 | 37 | 73 | 0.0 | 0.0 | 0.00 | 0.00 | 0.00 | 75 | 932.9 |
| 20260507085610 | 36 | 72 | 0.0 | 0.0 | 0.00 | 0.00 | 0.00 | 76 | 932.7 |
| 20260507085106 | 36 | 68 | 0.0 | 0.0 | 0.00 | 0.00 | 0.00 | 76 | 933.1 |
| 20260507084603 | 36 | 70 | 0.0 | 0.0 | 0.00 | 0.00 | 0.00 | 75 | 933.2 |
| 20260507084100 | 36 | 82 | 0.0 | 0.0 | 0.00 | 0.00 | 0.00 | 76 | 932.8 |
| 20260507083556 | 37 | 62 | 0.0 | 0.0 | 0.00 | 0.00 | 0.00 | 76 | 933.1 |
| 20260507083054 | 37 | 49 | 0.0 | 0.0 | 0.00 | 0.00 | 0.00 | 75 | 933.1 |
| 20260507082549 | 36 | 57 | 0.0 | 0.0 | 0.00 | 0.00 | 0.00 | 77 | 933.2 |
| 20260507082046 | 36 | 58 | 0.0 | 0.0 | 0.00 | 0.00 | 0.00 | 77 | 933.2 |
| 20260507081542 | 36 | 67 | 0.0 | 0.0 | 0.00 | 0.00 | 0.00 | 77 | 933.1 |
| 20260507081040 | 36 | 90 | 0.0 | 0.0 | 0.00 | 0.00 | 0.00 | 76 | 933.2 |
| 20260507080535 | 37 | 76 | 0.0 | 0.0 | 0.00 | 0.00 | 0.00 | 76 | 933.2 |
| 20260507080032 | 37 | 46 | 0.0 | 0.0 | 0.00 | 0.00 | 0.00 | 75 | 933.1 |
| 20260507075527 | 37 | 68 | 0.0 | 0.0 | 0.00 | 0.00 | 0.00 | 74 | 933.2 |
| 20260507075024 | 37 | 65 | 0.0 | 0.0 | 0.00 | 0.00 | 0.00 | 75 | 933.2 |
| 20260507074520 | 37 | 63 | 0.0 | 0.0 | 0.00 | 0.00 | 0.00 | 75 | 933.4 |
| 20260507074019 | 37 | 66 | 0.0 | 0.0 | 0.00 | 0.00 | 0.00 | 75 | 933.4 |
| 20260507073515 | 37 | 58 | 0.0 | 0.0 | 0.00 | 0.00 | 0.00 | 75 | 933.2 |
| 20260507073012 | 37 | 54 | 0.0 | 0.0 | 0.00 | 0.00 | 0.00 | 75 | 933.3 |
| 20260507072509 | 36 | 66 | 0.0 | 0.0 | 0.00 | 0.00 | 0.00 | 77 | 933.3 |
| 20260507072006 | 37 | 77 | 0.0 | 0.0 | 0.00 | 0.00 | 0.00 | 76 | 933.5 |
| 20260507071504 | 37 | 75 | 0.0 | 0.0 | 0.00 | 0.00 | 0.00 | 75 | 933.3 |
| 20260507071000 | 37 | 61 | 0.0 | 0.0 | 0.00 | 0.00 | 0.00 | 75 | 933.4 |
| 20260507070457 | 37 | 60 | 0.0 | 0.0 | 0.00 | 0.00 | 0.00 | 75 | 933.4 |
| 20260507065954 | 38 | 52 | 0.0 | 0.0 | 0.00 | 0.00 | 0.00 | 74 | 933.5 |
| 20260507065451 | 38 | 49 | 0.0 | 0.0 | 0.00 | 0.00 | 0.00 | 73 | 933.4 |
| 20260507064948 | 39 | 59 | 0.0 | 0.0 | 0.00 | 0.00 | 0.00 | 72 | 933.4 |
| 20260507064446 | 39 | 88 | 0.0 | 0.0 | 0.00 | 0.00 | 0.00 | 72 | 933.6 |
| 20260507063943 | 39 | 53 | 0.0 | 0.0 | 0.00 | 0.00 | 0.00 | 73 | 933.4 |
| 20260507063440 | 39 | 65 | 0.0 | 2.0 | 0.00 | 0.00 | 0.00 | 74 | 933.5 |
| 20260507062937 | 38 | 71 | 0.0 | 0.0 | 0.00 | 0.00 | 0.00 | 74 | 933.3 |
| 20260507062434 | 38 | 47 | 0.0 | 0.0 | 0.00 | 0.00 | 0.00 | 74 | 933.3 |
| 20260507061932 | 39 | 45 | 0.0 | 0.0 | 0.00 | 0.00 | 0.00 | 72 | 933.5 |
| 20260507061429 | 39 | 83 | 0.0 | 0.0 | 0.00 | 0.00 | 0.00 | 71 | 933.5 |
| 20260507060928 | 39 | 29 | 0.0 | 0.0 | 0.00 | 0.00 | 0.00 | 71 | 933.4 |
| 20260507060424 | 39 | 48 | 0.0 | 0.0 | 0.00 | 0.00 | 0.00 | 70 | 933.6 |
| 20260507055921 | 40 | 52 | 0.0 | 0.0 | 0.00 | 0.00 | 0.00 | 69 | 933.4 |
| 20260507055416 | 40 | 35 | 0.0 | 0.0 | 0.00 | 0.00 | 0.00 | 68 | 933.5 |
| 20260507054914 | 41 | 45 | 0.0 | 0.0 | 0.00 | 0.00 | 0.00 | 66 | 933.4 |
| 20260507054409 | 41 | 38 | 0.0 | 0.0 | 0.00 | 0.00 | 0.00 | 65 | 933.4 |
| 20260507053907 | 42 | 15 | 0.0 | 0.0 | 0.00 | 0.00 | 0.00 | 63 | 933.5 |
| 20260507053404 | 43 | 358 | 0.0 | 0.0 | 0.00 | 0.00 | 0.00 | 61 | 933.3 |
| 20260507052903 | 43 | 356 | 0.0 | 0.0 | 0.00 | 0.00 | 0.00 | 61 | 933.3 |
| 20260507052400 | 43 | 40 | 0.0 | 0.0 | 0.00 | 0.00 | 0.00 | 60 | 933.4 |
| 20260507051857 | 43 | 33 | 0.0 | 0.0 | 0.00 | 0.00 | 0.00 | 61 | 933.4 |
| 20260507051354 | 43 | 34 | 0.0 | 0.0 | 0.00 | 0.00 | 0.00 | 59 | 933.1 |
| 20260507050851 | 43 | 35 | 0.0 | 0.0 | 0.00 | 0.00 | 0.00 | 61 | 933.3 |
| 20260507050348 | 43 | 44 | 0.0 | 0.0 | 0.00 | 0.00 | 0.00 | 62 | 933.5 |
| 20260507045845 | 43 | 56 | 0.0 | 0.0 | 0.00 | 0.00 | 0.00 | 63 | 933.3 |
| 20260507045341 | 43 | 52 | 0.0 | 0.0 | 0.00 | 0.00 | 0.00 | 63 | 933.3 |
| 20260507044838 | 43 | 50 | 0.0 | 0.0 | 0.00 | 0.00 | 0.00 | 64 | 933.5 |
| 20260507044335 | 44 | 61 | 0.0 | 0.0 | 0.00 | 0.00 | 0.00 | 62 | 933.4 |
| 20260507043830 | 46 | 35 | 0.0 | 0.0 | 0.00 | 0.00 | 0.00 | 54 | 933.3 |
| 20260507043327 | 47 | 291 | 0.0 | 0.0 | 0.00 | 0.00 | 0.00 | 50 | 933.4 |
| 20260507042824 | 47 | 258 | 0.0 | 0.0 | 0.00 | 0.00 | 0.00 | 51 | 933.2 |
| 20260507042319 | 47 | 241 | 0.0 | 5.0 | 0.00 | 0.00 | 0.00 | 51 | 933.3 |
| 20260507041817 | 46 | 223 | 5.0 | 8.0 | 0.00 | 0.00 | 0.00 | 52 | 933.2 |
| 20260507041313 | 46 | 217 | 3.0 | 7.0 | 0.00 | 0.00 | 0.00 | 54 | 933.4 |
| 20260507040810 | 46 | 224 | 4.0 | 9.0 | 0.00 | 0.00 | 0.00 | 55 | 933.3 |
| 20260507040306 | 46 | 219 | 5.0 | 9.0 | 0.00 | 0.00 | 0.00 | 56 | 933.2 |
| 20260507035802 | 46 | 217 | 0.0 | 8.0 | 0.00 | 0.00 | 0.00 | 55 | 933.4 |
| 20260507035257 | 46 | 267 | 2.0 | 7.0 | 0.00 | 0.00 | 0.00 | 54 | 933.3 |
| 20260507034756 | 47 | 204 | 3.0 | 7.0 | 0.00 | 0.00 | 0.00 | 53 | 932.9 |
| 20260507034252 | 47 | 241 | 0.0 | 9.0 | 0.00 | 0.00 | 0.00 | 53 | 933.3 |
| 20260507033751 | 47 | 226 | 5.0 | 7.0 | 0.00 | 0.00 | 0.00 | 53 | 933.3 |
| 20260507033248 | 47 | 221 | 1.0 | 8.0 | 0.00 | 0.00 | 0.00 | 54 | 933.2 |
| 20260507032745 | 47 | 212 | 3.0 | 7.0 | 0.00 | 0.00 | 0.00 | 53 | 932.9 |
| 20260507032241 | 48 | 215 | 0.0 | 1.0 | 0.00 | 0.00 | 0.00 | 53 | 932.8 |
| 20260507031738 | 48 | 242 | 0.0 | 7.0 | 0.00 | 0.00 | 0.00 | 54 | 932.7 |
| 20260507031235 | 48 | 292 | 4.0 | 6.0 | 0.00 | 0.00 | 0.00 | 55 | 932.9 |
| 20260507030731 | 48 | 230 | 0.0 | 0.0 | 0.00 | 0.00 | 0.00 | 54 | 932.5 |
| 20260507030229 | 49 | 288 | 0.0 | 0.0 | 0.00 | 0.00 | 0.00 | 52 | 932.4 |
| 20260507025726 | 49 | 238 | 0.0 | 0.0 | 0.00 | 0.00 | 0.00 | 52 | 932.3 |
| 20260507025223 | 50 | 252 | 0.0 | 2.0 | 0.00 | 0.00 | 0.00 | 50 | 932.3 |
| 20260507024721 | 50 | 297 | 0.0 | 6.0 | 0.00 | 0.00 | 0.00 | 48 | 932.4 |
| 20260507024218 | 51 | 247 | 0.0 | 3.0 | 0.00 | 0.00 | 0.00 | 46 | 932.3 |
| 20260507023713 | 51 | 253 | 0.0 | 2.0 | 0.00 | 0.00 | 0.00 | 44 | 932.1 |
| 20260507023211 | 51 | 273 | 0.0 | 5.0 | 0.00 | 0.00 | 0.00 | 44 | 932.1 |
| 20260507022708 | 52 | 316 | 0.0 | 7.0 | 0.00 | 0.00 | 0.00 | 43 | 932.3 |
| 20260507022204 | 52 | 265 | 1.0 | 8.0 | 0.00 | 0.00 | 0.00 | 42 | 932.0 |
| 20260507021700 | 53 | 247 | 1.0 | 6.0 | 0.00 | 0.00 | 0.00 | 40 | 932.1 |
| 20260507021155 | 54 | 265 | 1.0 | 3.0 | 0.00 | 0.00 | 0.00 | 38 | 932.0 |
| 20260507020654 | 54 | 335 | 1.0 | 5.0 | 0.00 | 0.00 | 0.00 | 37 | 932.3 |
| 20260507020149 | 55 | 330 | 0.0 | 3.0 | 0.00 | 0.00 | 0.00 | 37 | 932.6 |
| 20260507015648 | 55 | 17 | 2.0 | 6.0 | 0.00 | 0.00 | 0.00 | 35 | 932.7 |
| 20260507015145 | 56 | 50 | 0.0 | 0.0 | 0.00 | 0.00 | 0.00 | 36 | 932.7 |
| 20260507014641 | 56 | 305 | 0.0 | 6.0 | 0.00 | 0.00 | 0.00 | 36 | 932.7 |
| 20260507014138 | 55 | 333 | 1.0 | 3.0 | 0.00 | 0.00 | 0.00 | 36 | 932.9 |
| 20260507013635 | 55 | 350 | 1.0 | 7.0 | 0.00 | 0.00 | 0.00 | 35 | 932.6 |
| 20260507013132 | 56 | 331 | 5.0 | 9.0 | 0.00 | 0.00 | 0.00 | 35 | 932.6 |
| 20260507012629 | 56 | 313 | 7.0 | 11.0 | 0.00 | 0.00 | 0.00 | 34 | 932.5 |
| 20260507012124 | 55 | 325 | 7.0 | 10.0 | 0.00 | 0.00 | 0.00 | 34 | 932.4 |
| 20260507011623 | 55 | 297 | 8.0 | 13.0 | 0.00 | 0.00 | 0.00 | 34 | 932.6 |
| 20260507011119 | 55 | 327 | 7.0 | 10.0 | 0.00 | 0.00 | 0.00 | 34 | 932.6 |
| 20260507010614 | 56 | 325 | 7.0 | 13.0 | 0.00 | 0.00 | 0.00 | 35 | 932.5 |
| 20260507010110 | 56 | 334 | 5.0 | 8.0 | 0.00 | 0.00 | 0.00 | 35 | 932.6 |
| 20260507005608 | 56 | 351 | 2.0 | 9.0 | 0.00 | 0.00 | 0.00 | 33 | 932.7 |
| 20260507005103 | 56 | 322 | 1.0 | 13.0 | 0.00 | 0.00 | 0.00 | 34 | 932.7 |
| 20260507004600 | 57 | 324 | 9.0 | 14.0 | 0.00 | 0.00 | 0.00 | 34 | 932.6 |
| 20260507004058 | 56 | 352 | 2.0 | 13.0 | 0.00 | 0.00 | 0.00 | 34 | 932.5 |
| 20260507003554 | 56 | 358 | 6.0 | 14.0 | 0.00 | 0.00 | 0.00 | 35 | 932.6 |
| 20260507003049 | 57 | 320 | 4.0 | 7.0 | 0.00 | 0.00 | 0.00 | 35 | 932.9 |
| 20260507002546 | 56 | 311 | 1.0 | 11.0 | 0.00 | 0.00 | 0.00 | 36 | 932.7 |
| 20260507002041 | 56 | 314 | 10.0 | 10.0 | 0.00 | 0.00 | 0.00 | 35 | 932.7 |
| 20260507001538 | 57 | 325 | 4.0 | 7.0 | 0.00 | 0.00 | 0.00 | 35 | 932.6 |
| 20260507001036 | 57 | 2 | 4.0 | 6.0 | 0.00 | 0.00 | 0.00 | 34 | 932.5 |
| 20260507000532 | 57 | 357 | 4.0 | 7.0 | 0.00 | 0.00 | 0.00 | 36 | 932.7 |
| 20260507000027 | 56 | 325 | 0.0 | 6.0 | 0.00 | 0.00 | 0.00 | 36 | 932.7 |
| 20260506235525 | 55 | 338 | 3.0 | 9.0 | 0.00 | 0.00 | 0.00 | 36 | 932.7 |
| 20260506235021 | 56 | 326 | 9.0 | 15.0 | 0.00 | 0.00 | 0.00 | 37 | 932.9 |
| 20260506234519 | 56 | 279 | 1.0 | 7.0 | 0.00 | 0.00 | 0.00 | 39 | 932.8 |
| 20260506234016 | 56 | 234 | 1.0 | 2.0 | 0.00 | 0.00 | 0.00 | 40 | 932.8 |
| 20260506233512 | 55 | 195 | 1.0 | 6.0 | 0.00 | 0.00 | 0.00 | 42 | 932.9 |
| 20260506233009 | 54 | 311 | 4.0 | 9.0 | 0.00 | 0.00 | 0.00 | 42 | 932.7 |
| 20260506232505 | 56 | 310 | 9.0 | 11.0 | 0.00 | 0.00 | 0.00 | 41 | 932.7 |
| 20260506232001 | 56 | 173 | 0.0 | 2.0 | 0.00 | 0.00 | 0.00 | 42 | 932.7 |
| 20260506231458 | 56 | 241 | 0.0 | 5.0 | 0.00 | 0.00 | 0.00 | 42 | 932.9 |
| 20260506230956 | 55 | 203 | 0.0 | 5.0 | 0.00 | 0.00 | 0.00 | 44 | 932.9 |
| 20260506230451 | 55 | 308 | 10.0 | 13.0 | 0.00 | 0.00 | 0.00 | 42 | 932.7 |
| 20260506225948 | 55 | 265 | 1.0 | 3.0 | 0.00 | 0.00 | 0.00 | 42 | 932.8 |
| 20260506225446 | 56 | 260 | 3.0 | 10.0 | 0.00 | 0.00 | 0.00 | 43 | 932.7 |